カタログに戻る

SL-16 DEB

LostVLEO
NORAD 39848·DEBRIS·🇷🇺 Russia

打ち上げ Dec 25, 1992 から Baikonur Cosmodrome

Loading…

次のパス (今後24時間)

TLE

古いSource: Space-Track

元期: Jun 29, 2026, 22:02 UTC

1 39848U 92093LA  26180.91843945  .00058804  00000-0  38309-2 0  9995
2 39848  71.2098  50.8224 0027435 173.8939 186.2574 15.07300485627048

AllMySatでSL-16 DEBをリアルタイム追跡

Download on the App Store